Location: Acton
(51.4942°N, 0.2232°W)
Time: 13:04:03
(UTC+00:00)

ARGOS - Pass Details

Date: 18 September 2020
Orbit: 821 x 834 km, 98.4° (Epoch: 22 October)

Event Time Altitude Azimuth Distance (km) Brightness Sun altitude
Rises 19:15:19 0° 167° (SSE) 3,342 6.0 -11.2°
Reaches altitude 10° 19:17:39 10° 168° (SSE) 2,415 5.3 -11.6°
Maximum altitude 19:23:00 80° 255° (WSW) 843 3.3 -12.4°
Drops below altitude 10° 19:28:26 10° 343° (NNW) 2,438 6.1 -13.1°
Sets 19:30:48 0° 345° (NNW) 3,378 6.9 -13.5°
